Project,Study,Ord_Occ,Event_Num,Cast_ID,Date_Time_UTC,Date_Time_PST,Lat_Dec,Lon_Dec,Sta_ID,Line,Sta,Depth,Pressure,PrQ,Temp1,Temp1Q,Temp2,Temp2Q,TempAve,Salt1,Salt1Q,Salt1_Corr,Salt2,Salt2Q,Salt2_Corr,SaltAve_Corr,Ox1,Ox1Q,Ox1_CruiseCorr,Ox1_StaCorr,Ox2,Ox2Q,Ox2_CruiseCorr,Ox2_StaCorr,OxAve_StaCorr,Ox1uM,Ox1uM_CruiseCorr,Ox1uM_StaCorr,Ox2uM,Ox2uM_CruiseCorr,Ox2uM_StaCorr,OxAveuM_StaCorr,FluorV,FluorQ,EstChl_CruiseCorr,EstChl_StaCorr,ISUSV,ISUSQ,EstNO3_CruiseCorr,EstNO3_StaCorr,SigThetaTS1,SigThetaTS1Q,SigThetaTS2,SigThetaTS2Q,BAT,XMiss,TransQ,pH,pHQ,SPAR,SPARQ,PAR,PARQ,PoT1,PoT2,DynHt,SVA,OxSat1,OxSat2,BTL_Depth,BTL_Temp,SaltB,OxB,OxBuM,Chl-a,Phaeo,NO3,NO2,NH4,PO4,SIL
CalCOFI,2007SR,075,77,2007_075u,27-Jul-2020 07:36:22,26-Jul-2020 23:36:22,34.17840,-119.50778,083.3 042.0,083.3,042.0,121.000,121.907,,9.9245,,9.9237,,9.9241,33.9584,,33.9586,33.9602,,33.9618,33.9602,2.5060,,2.6008,2.6022,3.1362,,3.5459,3.0739,2.8381,109.066,113.3659,113.4186,136.494,101.2150,135.6743,124.5465,0.0335,,,0.0661,-99.0,,-99.0,-99.0,26.1537,,26.1552,,0.6737,84.4998,,7.818,,1.9043E+00,,1.0000E-12,,9.9107,9.9099,0.2864,,39.356,49.253,,,,,,,,,,,,
CalCOFI,2007SR,075,77,2007_075u,27-Jul-2020 07:37:39,26-Jul-2020 23:37:39,34.17840,-119.50778,083.3 042.0,083.3,042.0,120.000,120.900,,9.9287,,9.9272,,9.9280,33.9576,,33.9578,33.9594,,33.9610,33.9594,2.5066,,2.6014,2.6028,3.0684,,3.3840,2.8774,2.7401,109.093,113.3941,113.4471,133.541,101.2810,127.1775,120.3123,0.0315,,,0.0455,-99.0,,-99.0,-99.0,26.1523,,26.1539,,0.6747,84.4777,,7.821,,1.9043E+00,,1.0000E-12,,9.9150,9.9135,0.2890,,39.369,48.191,120,9.929,33.9588,2.588,112.95,0.033,0.065,23.69,0.037,0.00,1.91,26.34
CalCOFI,2007SR,075,77,2007_075u,27-Jul-2020 07:37:49,26-Jul-2020 23:37:49,34.17840,-119.50778,083.3 042.0,083.3,042.0,119.000,119.892,,9.9259,,9.9248,,9.9254,33.9577,,33.9579,33.9596,,33.9612,33.9596,2.5159,,2.6112,2.6126,3.0659,,3.3780,2.8701,2.7414,109.497,113.8158,113.8731,133.431,102.2692,126.8610,120.3671,0.0316,,,0.0465,-99.0,,-99.0,-99.0,26.1529,,26.1545,,0.6739,84.4950,,7.821,,1.9043E+00,,1.0000E-12,,9.9122,9.9112,0.2893,,39.513,48.149,,,,,,,,,,,,
CalCOFI,2007SR,075,77,2007_075u,27-Jul-2020 07:37:51,26-Jul-2020 23:37:51,34.17840,-119.50778,083.3 042.0,083.3,042.0,118.000,118.884,,9.9285,,9.9281,,9.9283,33.9549,,33.9551,33.9565,,33.9581,33.9566,2.5213,,2.6168,2.6183,3.0615,,3.3675,2.8574,2.7379,109.730,114.0590,114.1189,133.242,102.8390,126.3172,120.2181,0.0316,,,0.0465,-99.0,,-99.0,-99.0,26.1502,,26.1515,,0.6724,84.5255,,7.821,,1.9043E+00,,1.0000E-12,,9.9150,9.9146,0.2893,,39.598,48.083,,,,,,,,,,,,
CalCOFI,2007SR,075,77,2007_075u,27-Jul-2020 07:37:53,26-Jul-2020 23:37:53,34.17840,-119.50778,083.3 042.0,083.3,042.0,117.000,117.876,,9.9304,,9.9304,,9.9304,33.9532,,33.9534,33.9546,,33.9562,33.9548,2.5255,,2.6212,2.6228,3.0606,,3.3654,2.8548,2.7388,109.914,114.2511,114.3129,133.204,103.2891,126.2078,120.2604,0.0319,,,0.0496,-99.0,,-99.0,-99.0,26.1486,,26.1497,,0.6719,84.5367,,7.821,,1.9043E+00,,1.0000E-12,,9.9170,9.9170,0.2893,,39.666,48.071,,,,,,,,,,,,
CalCOFI,2007SR,075,77,2007_075u,27-Jul-2020 07:37:56,26-Jul-2020 23:37:56,34.17840,-119.50778,083.3 042.0,083.3,042.0,116.000,116.868,,9.9332,,9.9332,,9.9332,33.9512,,33.9514,33.9527,,33.9543,33.9529,2.5310,,2.6269,2.6285,3.0606,,3.3654,2.8548,2.7417,110.154,114.5017,114.5660,133.204,103.8761,126.2078,120.3869,0.0313,,,0.0434,-99.0,,-99.0,-99.0,26.1465,,26.1477,,0.6719,84.5363,,7.822,,1.9043E+00,,1.0000E-12,,9.9200,9.9199,0.2893,,39.754,48.073,,,,,,,,,,,,
CalCOFI,2007SR,075,77,2007_075u,27-Jul-2020 07:37:58,26-Jul-2020 23:37:58,34.17840,-119.50778,083.3 042.0,083.3,042.0,115.000,115.861,,9.9353,,9.9352,,9.9353,33.9498,,33.9500,33.9514,,33.9530,33.9515,2.5384,,2.6347,2.6363,3.0599,,3.3637,2.8527,2.7445,110.474,114.8357,114.9035,133.171,104.6588,126.1129,120.5082,0.0322,,,0.0527,-99.0,,-99.0,-99.0,26.1450,,26.1463,,0.6728,84.5178,,7.824,,1.9043E+00,,1.0000E-12,,9.9222,9.9220,0.2893,,39.871,48.063,,,,,,,,,,,,
CalCOFI,2007SR,075,77,2007_075u,27-Jul-2020 07:38:01,26-Jul-2020 23:38:01,34.17840,-119.50778,083.3 042.0,083.3,042.0,114.000,114.853,,9.9392,,9.9394,,9.9393,33.9475,,33.9477,33.9488,,33.9504,33.9491,2.5431,,2.6396,2.6413,3.0594,,3.3625,2.8513,2.7463,110.681,115.0518,115.1218,133.153,105.1651,126.0611,120.5915,0.0315,,,0.0455,-99.0,,-99.0,-99.0,26.1425,,26.1435,,0.6718,84.5393,,7.825,,1.9043E+00,,1.0000E-12,,9.9262,9.9264,0.2893,,39.949,48.060,,,,,,,,,,,,
CalCOFI,2007SR,075,77,2007_075u,27-Jul-2020 07:38:03,26-Jul-2020 23:38:03,34.17840,-119.50778,083.3 042.0,083.3,042.0,113.000,113.845,,9.9425,,9.9427,,9.9426,33.9453,,33.9455,33.9467,,33.9483,33.9469,2.5523,,2.6492,2.6510,3.0588,,3.3611,2.8495,2.7503,111.081,115.4694,115.5437,133.128,106.1434,125.9891,120.7664,0.0311,,,0.0413,-99.0,,-99.0,-99.0,26.1403,,26.1413,,0.6735,84.5035,,7.826,,1.9043E+00,,1.0000E-12,,9.9296,9.9297,0.2893,,40.095,48.054,,,,,,,,,,,,
CalCOFI,2007SR,075,77,2007_075u,27-Jul-2020 07:38:06,26-Jul-2020 23:38:06,34.17840,-119.50778,083.3 042.0,083.3,042.0,112.000,112.837,,9.9461,,9.9462,,9.9462,33.9430,,33.9432,33.9444,,33.9460,33.9446,2.5594,,2.6566,2.6585,3.0582,,3.3596,2.8478,2.7532,111.391,115.7930,115.8706,133.102,106.9016,125.9143,120.8925,0.0320,,,0.0506,-99.0,,-99.0,-99.0,26.1378,,26.1389,,0.6755,84.4611,,7.826,,1.9043E+00,,1.0000E-12,,9.9333,9.9334,0.2893,,40.209,48.047,,,,,,,,,,,,
CalCOFI,2007SR,075,77,2007_075u,27-Jul-2020 07:38:08,26-Jul-2020 23:38:08,34.17840,-119.50778,083.3 042.0,083.3,042.0,111.000,111.830,,9.9491,,9.9494,,9.9493,33.9401,,33.9403,33.9411,,33.9427,33.9415,2.5634,,2.6608,2.6627,3.0587,,3.3608,2.8493,2.7560,111.566,115.9756,116.0551,133.122,107.3296,125.9719,121.0135,0.0320,,,0.0506,-99.0,,-99.0,-99.0,26.1351,,26.1358,,0.6762,84.4468,,7.826,,1.9043E+00,,1.0000E-12,,9.9364,9.9367,0.2893,,40.274,48.056,,,,,,,,,,,,
CalCOFI,2007SR,075,77,2007_075u,27-Jul-2020 07:38:11,26-Jul-2020 23:38:11,34.17840,-119.50778,083.3 042.0,083.3,042.0,110.000,110.822,,9.9505,,9.9503,,9.9504,33.9371,,33.9373,33.9383,,33.9399,33.9386,2.5669,,2.6645,2.6664,3.0579,,3.3589,2.8469,2.7567,111.716,116.1322,116.2133,133.089,107.6965,125.8769,121.0451,0.0320,,,0.0506,-99.0,,-99.0,-99.0,26.1324,,26.1334,,0.6777,84.4148,,7.826,,1.9043E+00,,1.0000E-12,,9.9379,9.9377,0.2893,,40.329,48.045,,,,,,,,,,,,
CalCOFI,2007SR,075,77,2007_075u,27-Jul-2020 07:38:13,26-Jul-2020 23:38:13,34.17840,-119.50778,083.3 042.0,083.3,042.0,109.000,109.814,,9.9516,,9.9518,,9.9517,33.9358,,33.9360,33.9366,,33.9382,33.9371,2.5710,,2.6687,2.6707,3.0587,,3.3608,2.8493,2.7600,111.896,116.3201,116.4032,133.122,108.1368,125.9719,121.1876,0.0314,,,0.0444,-99.0,,-99.0,-99.0,26.1312,,26.1318,,0.6778,84.4135,,7.826,,1.9043E+00,,1.0000E-12,,9.9391,9.9393,0.2893,,40.394,48.057,,,,,,,,,,,,
CalCOFI,2007SR,075,77,2007_075u,27-Jul-2020 07:38:15,26-Jul-2020 23:38:15,34.17840,-119.50778,083.3 042.0,083.3,042.0,108.000,108.806,,9.9501,,9.9501,,9.9501,33.9335,,33.9337,33.9346,,33.9362,33.9350,2.5767,,2.6747,2.6767,3.0582,,3.3596,2.8478,2.7623,112.146,116.5811,116.6668,133.101,108.7482,125.9115,121.2892,0.0314,,,0.0444,-99.0,,-99.0,-99.0,26.1297,,26.1305,,0.6791,84.3852,,7.827,,1.9043E+00,,1.0000E-12,,9.9378,9.9377,0.2893,,40.483,48.047,,,,,,,,,,,,
CalCOFI,2007SR,075,77,2007_075u,27-Jul-2020 07:38:18,26-Jul-2020 23:38:18,34.17840,-119.50778,083.3 042.0,083.3,042.0,107.000,107.799,,9.9525,,9.9531,,9.9528,33.9317,,33.9319,33.9330,,33.9346,33.9333,2.5809,,2.6791,2.6811,3.0611,,3.3666,2.8562,2.7687,112.327,116.7701,116.8577,133.227,109.1909,126.2740,121.5659,0.0316,,,0.0465,-99.0,,-99.0,-99.0,26.1279,,26.1287,,0.6808,84.3505,,7.828,,1.9043E+00,,1.0000E-12,,9.9403,9.9408,0.2893,,40.550,48.095,,,,,,,,,,,,
CalCOFI,2007SR,075,77,2007_075u,27-Jul-2020 07:38:21,26-Jul-2020 23:38:21,34.17840,-119.50778,083.3 042.0,083.3,042.0,106.000,106.791,,9.9576,,9.9589,,9.9583,33.9303,,33.9305,33.9316,,33.9332,33.9319,2.5918,,2.6905,2.6926,3.0595,,3.3627,2.8516,2.7721,112.801,117.2649,117.3576,133.160,110.3503,126.0812,121.7194,0.0330,,,0.0609,-99.0,,-99.0,-99.0,26.1259,,26.1267,,0.6818,84.3297,,7.830,,1.9043E+00,,1.0000E-12,,9.9455,9.9468,0.2893,,40.725,48.077,,,,,,,,,,,,
CalCOFI,2007SR,075,77,2007_075u,27-Jul-2020 07:38:23,26-Jul-2020 23:38:23,34.17840,-119.50778,083.3 042.0,083.3,042.0,105.000,105.783,,9.9657,,9.9676,,9.9667,33.9284,,33.9286,33.9292,,33.9308,33.9297,2.5995,,2.6985,2.7007,3.0633,,3.3718,2.8626,2.7817,113.138,117.6167,117.7130,133.322,111.1745,126.5473,122.1302,0.0320,,,0.0506,-99.0,,-99.0,-99.0,26.1230,,26.1233,,0.6820,84.3245,,7.830,,1.9043E+00,,1.0000E-12,,9.9537,9.9556,0.2893,,40.853,48.144,,,,,,,,,,,,
CalCOFI,2007SR,075,77,2007_075u,27-Jul-2020 07:38:25,26-Jul-2020 23:38:25,34.17840,-119.50778,083.3 042.0,083.3,042.0,104.000,104.776,,9.9699,,9.9703,,9.9701,33.9261,,33.9263,33.9275,,33.9291,33.9277,2.6029,,2.7021,2.7043,3.0630,,3.3711,2.8617,2.7830,113.285,117.7701,117.8680,133.311,111.5341,126.5157,122.1919,0.0314,,,0.0444,-99.0,,-99.0,-99.0,26.1205,,26.1215,,0.6833,84.2970,,7.830,,1.9043E+00,,1.0000E-12,,9.9580,9.9584,0.2893,,40.909,48.142,,,,,,,,,,,,
CalCOFI,2007SR,075,77,2007_075u,27-Jul-2020 07:38:28,26-Jul-2020 23:38:28,34.17840,-119.50778,083.3 042.0,083.3,042.0,103.000,103.768,,9.9729,,9.9736,,9.9733,33.9253,,33.9255,33.9263,,33.9279,33.9267,2.6028,,2.7020,2.7042,3.0618,,3.3682,2.8582,2.7812,113.284,117.7691,117.8670,133.258,111.5316,126.3632,122.1151,0.0324,,,0.0547,-99.0,,-99.0,-99.0,26.1193,,26.1200,,0.6832,84.3005,,7.830,,1.9043E+00,,1.0000E-12,,9.9611,9.9618,0.2893,,40.911,48.126,,,,,,,,,,,,
CalCOFI,2007SR,075,77,2007_075u,27-Jul-2020 07:38:31,26-Jul-2020 23:38:31,34.17840,-119.50778,083.3 042.0,083.3,042.0,102.000,102.760,,9.9749,,9.9738,,9.9744,33.9240,,33.9242,33.9259,,33.9275,33.9259,2.6069,,2.7062,2.7085,3.0671,,3.3809,2.8736,2.7911,113.461,117.9538,118.0536,133.489,111.9645,127.0279,122.5408,0.0324,,,0.0547,-99.0,,-99.0,-99.0,26.1180,,26.1197,,0.6850,84.2614,,7.830,,1.9043E+00,,1.0000E-12,,9.9632,9.9621,0.2893,,40.977,48.209,,,,,,,,,,,,
CalCOFI,2007SR,075,77,2007_075u,27-Jul-2020 07:38:34,26-Jul-2020 23:38:34,34.17840,-119.50778,083.3 042.0,083.3,042.0,101.000,101.752,,9.9752,,9.9753,,9.9753,33.9233,,33.9235,33.9244,,33.9260,33.9248,2.6081,,2.7075,2.7098,3.0654,,3.3768,2.8687,2.7893,113.512,118.0071,118.1074,133.418,112.0893,126.8236,122.4655,0.0323,,,0.0537,-99.0,,-99.0,-99.0,26.1173,,26.1182,,0.6839,84.2846,,7.830,,1.9043E+00,,1.0000E-12,,9.9636,9.9637,0.2893,,40.995,48.184,,,,,,,,,,,,
CalCOFI,2007SR,075,77,2007_075u,27-Jul-2020 07:39:18,26-Jul-2020 23:39:18,34.17840,-119.50778,083.3 042.0,083.3,042.0,100.000,100.745,,9.9752,,9.9747,,9.9750,33.9234,,33.9236,33.9250,,33.9266,33.9251,2.6059,,2.7052,2.7075,3.0764,,3.4031,2.9006,2.8041,113.418,117.9090,118.0083,133.893,111.8594,128.1903,123.0993,0.0322,,,0.0527,-99.0,,-99.0,-99.0,26.1174,,26.1187,,0.6862,84.2351,,7.834,,1.9043E+00,,1.0000E-12,,9.9637,9.9632,0.2916,,40.961,48.356,100,9.975,33.9230,2.701,117.90,0.031,0.071,23.02,0.028,0.00,1.85,25.16
CalCOFI,2007SR,075,77,2007_075u,27-Jul-2020 07:39:57,26-Jul-2020 23:39:57,34.17840,-119.50778,083.3 042.0,083.3,042.0,99.000,99.737,,9.9807,,9.9810,,9.9809,33.9223,,33.9225,33.9237,,33.9253,33.9239,2.6104,,2.7099,2.7122,3.0668,,3.3802,2.8727,2.7925,113.615,118.1146,118.2161,133.479,112.3412,126.9991,122.6076,0.0319,,,0.0496,-99.0,,-99.0,-99.0,26.1156,,26.1166,,0.6911,84.1315,,7.835,,1.9043E+00,,1.0000E-12,,9.9693,9.9696,0.2932,,41.037,48.212,,,,,,,,,,,,
CalCOFI,2007SR,075,77,2007_075u,27-Jul-2020 07:40:00,26-Jul-2020 23:40:00,34.17840,-119.50778,083.3 042.0,083.3,042.0,98.000,98.729,,9.9821,,9.9820,,9.9821,33.9220,,33.9222,33.9235,,33.9251,33.9237,2.6145,,2.7142,2.7165,3.0638,,3.3730,2.8640,2.7903,113.790,118.2973,118.4006,133.348,112.7692,126.6222,122.5114,0.0327,,,0.0578,-99.0,,-99.0,-99.0,26.1151,,26.1163,,0.6919,84.1151,,7.835,,1.9043E+00,,1.0000E-12,,9.9709,9.9708,0.2932,,41.101,48.166,,,,,,,,,,,,
CalCOFI,2007SR,075,77,2007_075u,27-Jul-2020 07:40:03,26-Jul-2020 23:40:03,34.17840,-119.50778,083.3 042.0,083.3,042.0,97.000,97.722,,9.9826,,9.9825,,9.9826,33.9208,,33.9210,33.9220,,33.9236,33.9223,2.6285,,2.7288,2.7313,3.0636,,3.3725,2.8635,2.7974,114.403,118.9372,119.0471,133.339,114.2685,126.5963,122.8217,0.0322,,,0.0527,-99.0,,-99.0,-99.0,26.1141,,26.1150,,0.6918,84.1185,,7.835,,1.9043E+00,,1.0000E-12,,9.9715,9.9714,0.2932,,41.322,48.162,,,,,,,,,,,,
CalCOFI,2007SR,075,77,2007_075u,27-Jul-2020 07:40:05,26-Jul-2020 23:40:05,34.17840,-119.50778,083.3 042.0,083.3,042.0,96.000,96.714,,9.9897,,9.9896,,9.9897,33.9172,,33.9174,33.9187,,33.9203,33.9189,2.6456,,2.7467,2.7493,3.0674,,3.3816,2.8745,2.8119,115.144,119.7107,119.8286,133.504,116.0809,127.0710,123.4498,0.0326,,,0.0568,-99.0,,-99.0,-99.0,26.1101,,26.1113,,0.6906,84.1424,,7.835,,1.9043E+00,,1.0000E-12,,9.9787,9.9786,0.2932,,41.596,48.229,,,,,,,,,,,,
CalCOFI,2007SR,075,77,2007_075u,27-Jul-2020 07:40:07,26-Jul-2020 23:40:07,34.17840,-119.50778,083.3 042.0,083.3,042.0,95.000,95.706,,10.0026,,10.0058,,10.0042,33.9124,,33.9126,33.9127,,33.9143,33.9135,2.6639,,2.7658,2.7686,3.0613,,3.3670,2.8568,2.8127,115.943,120.5448,120.6712,133.240,118.0352,126.3114,123.4913,0.0322,,,0.0527,-99.0,,-99.0,-99.0,26.1041,,26.1038,,0.6917,84.1188,,7.835,,1.9043E+00,,1.0000E-12,,9.9917,9.9949,0.2932,,41.895,48.148,,,,,,,,,,,,
CalCOFI,2007SR,075,77,2007_075u,27-Jul-2020 07:40:10,26-Jul-2020 23:40:10,34.17840,-119.50778,083.3 042.0,083.3,042.0,94.000,94.699,,10.0153,,10.0162,,10.0158,33.9079,,33.9081,33.9090,,33.9106,33.9094,2.6691,,2.7712,2.7741,3.0590,,3.3616,2.8501,2.8121,116.169,120.7807,120.9096,133.138,118.5879,126.0179,123.4638,0.0317,,,0.0475,-99.0,,-99.0,-99.0,26.0984,,26.0991,,0.6891,84.1758,,7.835,,1.9043E+00,,1.0000E-12,,10.0045,10.0054,0.2932,,41.986,48.121,,,,,,,,,,,,
CalCOFI,2007SR,075,77,2007_075u,27-Jul-2020 07:40:12,26-Jul-2020 23:40:12,34.17840,-119.50778,083.3 042.0,083.3,042.0,93.000,93.691,,10.0209,,10.0210,,10.0210,33.9062,,33.9064,33.9074,,33.9090,33.9077,2.6719,,2.7742,2.7770,3.0603,,3.3647,2.8539,2.8155,116.290,120.9070,121.0372,133.199,118.8839,126.1934,123.6153,0.0325,,,0.0558,-99.0,,-99.0,-99.0,26.0961,,26.0970,,0.6890,84.1776,,7.839,,1.9043E+00,,1.0000E-12,,10.0102,10.0104,0.2932,,42.035,48.147,,,,,,,,,,,,
CalCOFI,2007SR,075,77,2007_075u,27-Jul-2020 07:40:14,26-Jul-2020 23:40:14,34.17840,-119.50778,083.3 042.0,083.3,042.0,92.000,92.683,,10.0222,,10.0225,,10.0224,33.9057,,33.9059,33.9070,,33.9086,33.9073,2.6761,,2.7786,2.7815,3.0619,,3.3685,2.8585,2.8200,116.477,121.1022,121.2344,133.265,119.3412,126.3833,123.8089,0.0327,,,0.0578,-99.0,,-99.0,-99.0,26.0955,,26.0965,,0.6874,84.2108,,7.840,,1.9043E+00,,1.0000E-12,,10.0116,10.0119,0.2932,,42.103,48.172,,,,,,,,,,,,
CalCOFI,2007SR,075,77,2007_075u,27-Jul-2020 07:40:16,26-Jul-2020 23:40:16,34.17840,-119.50778,083.3 042.0,083.3,042.0,91.000,91.676,,10.0261,,10.0255,,10.0258,33.9041,,33.9043,33.9058,,33.9074,33.9059,2.6961,,2.7995,2.8025,3.0635,,3.3723,2.8632,2.8329,117.345,122.0083,122.1498,133.336,121.4643,126.5876,124.3687,0.0321,,,0.0516,-99.0,,-99.0,-99.0,26.0936,,26.0950,,0.6890,84.1764,,7.840,,1.9043E+00,,1.0000E-12,,10.0156,10.0150,0.2932,,42.420,48.201,,,,,,,,,,,,
CalCOFI,2007SR,075,77,2007_075u,27-Jul-2020 07:40:18,26-Jul-2020 23:40:18,34.17840,-119.50778,083.3 042.0,083.3,042.0,90.000,90.668,,10.0357,,10.0354,,10.0356,33.9012,,33.9014,33.9026,,33.9042,33.9028,2.7169,,2.8212,2.8244,3.0618,,3.3682,2.8582,2.8413,118.250,122.9531,123.1042,133.264,123.6778,126.3805,124.7424,0.0326,,,0.0568,-99.0,,-99.0,-99.0,26.0896,,26.0908,,0.6907,84.1402,,7.840,,1.9043E+00,,1.0000E-12,,10.0254,10.0250,0.2932,,42.755,48.184,,,,,,,,,,,,
CalCOFI,2007SR,075,77,2007_075u,27-Jul-2020 07:40:20,26-Jul-2020 23:40:20,34.17840,-119.50778,083.3 042.0,083.3,042.0,89.000,89.660,,10.0466,,10.0468,,10.0467,33.8982,,33.8984,33.8996,,33.9012,33.8998,2.7190,,2.8234,2.8267,3.0605,,3.3651,2.8545,2.8406,118.344,123.0512,123.2034,133.206,123.9077,126.2136,124.7085,0.0319,,,0.0496,-99.0,,-99.0,-99.0,26.0855,,26.0865,,0.6819,84.3254,,7.840,,1.9043E+00,,1.0000E-12,,10.0364,10.0366,0.2932,,42.798,48.174,,,,,,,,,,,,
CalCOFI,2007SR,075,77,2007_075u,27-Jul-2020 07:40:23,26-Jul-2020 23:40:23,34.17840,-119.50778,083.3 042.0,083.3,042.0,88.000,88.653,,10.0522,,10.0523,,10.0523,33.8962,,33.8964,33.8975,,33.8991,33.8978,2.7286,,2.8334,2.8368,3.0597,,3.3632,2.8522,2.8445,118.761,123.4865,123.6431,133.174,124.9276,126.1215,124.8823,0.0321,,,0.0516,-99.0,,-99.0,-99.0,26.0829,,26.0840,,0.6798,84.3709,,7.844,,1.9043E+00,,1.0000E-12,,10.0420,10.0422,0.2932,,42.953,48.167,,,,,,,,,,,,
CalCOFI,2007SR,075,77,2007_075u,27-Jul-2020 07:40:24,26-Jul-2020 23:40:24,34.17840,-119.50778,083.3 042.0,083.3,042.0,87.000,87.645,,10.0577,,10.0581,,10.0579,33.8945,,33.8947,33.8956,,33.8972,33.8960,2.7322,,2.8372,2.8406,3.0591,,3.3618,2.8504,2.8455,118.920,123.6525,123.8108,133.145,125.3165,126.0381,124.9245,0.0319,,,0.0496,-99.0,,-99.0,-99.0,26.0806,,26.0815,,0.6807,84.3532,,7.844,,1.9043E+00,,1.0000E-12,,10.0477,10.0481,0.2932,,43.016,48.162,,,,,,,,,,,,
CalCOFI,2007SR,075,77,2007_075u,27-Jul-2020 07:40:26,26-Jul-2020 23:40:26,34.17840,-119.50778,083.3 042.0,083.3,042.0,86.000,86.637,,10.0630,,10.0625,,10.0628,33.8929,,33.8931,33.8943,,33.8959,33.8945,2.7316,,2.8365,2.8399,3.0638,,3.3730,2.8640,2.8520,118.890,123.6212,123.7792,133.352,125.2431,126.6337,125.2065,0.0321,,,0.0516,-99.0,,-99.0,-99.0,26.0785,,26.0797,,0.6799,84.3683,,7.845,,1.9043E+00,,1.0000E-12,,10.0531,10.0526,0.2932,,43.009,48.241,,,,,,,,,,,,
CalCOFI,2007SR,075,77,2007_075u,27-Jul-2020 07:41:11,26-Jul-2020 23:41:11,34.17840,-119.50778,083.3 042.0,083.3,042.0,85.000,85.630,,10.0612,,10.0627,,10.0620,33.8925,,33.8927,33.8933,,33.8949,33.8938,2.7264,,2.8311,2.8345,3.0801,,3.4119,2.9113,2.8729,118.667,123.3884,123.5440,134.063,124.6977,128.6795,126.1118,0.0329,,,0.0599,-99.0,,-99.0,-99.0,26.0785,,26.0789,,0.6828,84.3066,,7.849,,1.9043E+00,,1.0000E-12,,10.0515,10.0529,0.2955,,42.927,48.498,85,10.061,33.8907,,123.65,0.025,0.073,22.39,0.028,0.00,1.78,23.89
CalCOFI,2007SR,075,77,2007_075u,27-Jul-2020 07:41:48,26-Jul-2020 23:41:48,34.17840,-119.50778,083.3 042.0,083.3,042.0,84.000,84.622,,10.0736,,10.0736,,10.0736,33.8876,,33.8878,33.8890,,33.8906,33.8892,2.7177,,2.8220,2.8253,3.0832,,3.4193,2.9203,2.8728,118.287,122.9917,123.1432,134.197,123.7683,129.0650,126.1041,0.0325,,,0.0558,-99.0,,-99.0,-99.0,26.0725,,26.0736,,0.6906,84.1441,,7.849,,1.9043E+00,,1.0000E-12,,10.0639,10.0640,0.2969,,42.799,48.557,,,,,,,,,,,,
CalCOFI,2007SR,075,77,2007_075u,27-Jul-2020 07:41:51,26-Jul-2020 23:41:51,34.17840,-119.50778,083.3 042.0,083.3,042.0,83.000,83.615,,10.0813,,10.0852,,10.0833,33.8848,,33.8850,33.8849,,33.8865,33.8858,2.7208,,2.8253,2.8286,3.0760,,3.4021,2.8994,2.8640,118.422,123.1326,123.2856,133.883,124.0984,128.1615,125.7236,0.0325,,,0.0558,-99.0,,-99.0,-99.0,26.0690,,26.0684,,0.6965,84.0178,,7.849,,1.9043E+00,,1.0000E-12,,10.0717,10.0756,0.2969,,42.854,48.453,,,,,,,,,,,,
CalCOFI,2007SR,075,77,2007_075u,27-Jul-2020 07:41:54,26-Jul-2020 23:41:54,34.17840,-119.50778,083.3 042.0,083.3,042.0,82.000,82.607,,10.0947,,10.0957,,10.0952,33.8802,,33.8804,33.8813,,33.8829,33.8817,2.7286,,2.8334,2.8368,3.0763,,3.4029,2.9003,2.8686,118.766,123.4917,123.6484,133.898,124.9398,128.2047,125.9266,0.0328,,,0.0589,-99.0,,-99.0,-99.0,26.0631,,26.0638,,0.6979,83.9883,,7.849,,1.9043E+00,,1.0000E-12,,10.0853,10.0863,0.2969,,42.990,48.468,,,,,,,,,,,,
CalCOFI,2007SR,075,77,2007_075u,27-Jul-2020 07:41:57,26-Jul-2020 23:41:57,34.17840,-119.50778,083.3 042.0,083.3,042.0,81.000,81.599,,10.0997,,10.1001,,10.0999,33.8786,,33.8788,33.8798,,33.8814,33.8801,2.7332,,2.8382,2.8416,3.0755,,3.4009,2.8980,2.8698,118.965,123.6995,123.8583,133.865,125.4265,128.1098,125.9841,0.0332,,,0.0630,-99.0,,-99.0,-99.0,26.0610,,26.0619,,0.6981,83.9841,,7.849,,1.9043E+00,,1.0000E-12,,10.0903,10.0908,0.2969,,43.066,48.461,,,,,,,,,,,,
CalCOFI,2007SR,075,77,2007_075u,27-Jul-2020 07:42:00,26-Jul-2020 23:42:00,34.17840,-119.50778,083.3 042.0,083.3,042.0,80.000,80.592,,10.1085,,10.1051,,10.1068,33.8758,,33.8760,33.8782,,33.8798,33.8779,2.7362,,2.8414,2.8448,3.0739,,3.3971,2.8933,2.8691,119.093,123.8331,123.9933,133.792,125.7396,127.8997,125.9465,0.0332,,,0.0630,-99.0,,-99.0,-99.0,26.0573,,26.0598,,0.6975,83.9984,,7.849,,1.9043E+00,,1.0000E-12,,10.0992,10.0959,0.2969,,43.120,48.439,,,,,,,,,,,,
CalCOFI,2007SR,075,77,2007_075u,27-Jul-2020 07:42:02,26-Jul-2020 23:42:02,34.17840,-119.50778,083.3 042.0,083.3,042.0,79.000,79.584,,10.1146,,10.1154,,10.1150,33.8736,,33.8738,33.8746,,33.8762,33.8750,2.7411,,2.8465,2.8499,3.0677,,3.3823,2.8753,2.8626,119.309,124.0586,124.2211,133.526,126.2679,127.1343,125.6777,0.0328,,,0.0589,-99.0,,-99.0,-99.0,26.0545,,26.0552,,0.7005,83.9356,,7.849,,1.9043E+00,,1.0000E-12,,10.1055,10.1063,0.2969,,43.203,48.352,,,,,,,,,,,,
CalCOFI,2007SR,075,77,2007_075u,27-Jul-2020 07:42:04,26-Jul-2020 23:42:04,34.17840,-119.50778,083.3 042.0,083.3,042.0,78.000,78.577,,10.1230,,10.1243,,10.1237,33.8709,,33.8711,33.8718,,33.8734,33.8723,2.7486,,2.8543,2.8578,3.0686,,3.3845,2.8780,2.8679,119.637,124.4010,124.5670,133.565,127.0702,127.2466,125.9068,0.0339,,,0.0702,-99.0,,-99.0,-99.0,26.0509,,26.0514,,0.7034,83.8743,,7.849,,1.9043E+00,,1.0000E-12,,10.1140,10.1153,0.2969,,43.328,48.374,,,,,,,,,,,,
CalCOFI,2007SR,075,77,2007_075u,27-Jul-2020 07:42:08,26-Jul-2020 23:42:08,34.17840,-119.50778,083.3 042.0,083.3,042.0,77.000,77.569,,10.1342,,10.1321,,10.1332,33.8672,,33.8674,33.8693,,33.8709,33.8692,2.7589,,2.8651,2.8687,3.0639,,3.3732,2.8643,2.8665,120.086,124.8697,125.0405,133.361,128.1683,126.6596,125.8501,0.0333,,,0.0640,-99.0,,-99.0,-99.0,26.0462,,26.0481,,0.7066,83.8077,,7.849,,1.9043E+00,,1.0000E-12,,10.1253,10.1232,0.2969,,43.500,48.308,,,,,,,,,,,,
CalCOFI,2007SR,075,77,2007_075u,27-Jul-2020 07:42:10,26-Jul-2020 23:42:10,34.17840,-119.50778,083.3 042.0,083.3,042.0,76.000,76.561,,10.1443,,10.1449,,10.1446,33.8641,,33.8643,33.8654,,33.8670,33.8657,2.7752,,2.8821,2.8859,3.0600,,3.3639,2.8530,2.8695,120.793,125.6077,125.7861,133.189,129.8976,126.1647,125.9754,0.0333,,,0.0640,-99.0,,-99.0,-99.0,26.0420,,26.0429,,0.7071,83.7973,,7.850,,1.9043E+00,,1.0000E-12,,10.1355,10.1361,0.2969,,43.765,48.258,,,,,,,,,,,,
CalCOFI,2007SR,075,77,2007_075u,27-Jul-2020 07:42:12,26-Jul-2020 23:42:12,34.17840,-119.50778,083.3 042.0,083.3,042.0,75.000,75.554,,10.1654,,10.1651,,10.1653,33.8578,,33.8580,33.8592,,33.8608,33.8594,2.7997,,2.9077,2.9117,3.0562,,3.3549,2.8420,2.8769,121.863,126.7247,126.9146,133.027,132.5146,125.6985,126.3066,0.0334,,,0.0650,-99.0,,-99.0,-99.0,26.0335,,26.0346,,0.7113,83.7077,,7.851,,1.9043E+00,,1.0000E-12,,10.1567,10.1564,0.2969,,44.171,48.218,,,,,,,,,,,,
CalCOFI,2007SR,075,77,2007_075u,27-Jul-2020 07:42:15,26-Jul-2020 23:42:15,34.17840,-119.50778,083.3 042.0,083.3,042.0,74.000,74.546,,10.1959,,10.1898,,10.1929,33.8491,,33.8493,33.8519,,33.8535,33.8514,2.8371,,2.9468,2.9511,3.0540,,3.3496,2.8356,2.8934,123.492,128.4252,128.6325,132.932,136.4989,125.4252,127.0289,0.0340,,,0.0712,-99.0,,-99.0,-99.0,26.0215,,26.0247,,0.7134,83.6646,,7.853,,1.9043E+00,,1.0000E-12,,10.1873,10.1812,0.2969,,44.788,48.206,,,,,,,,,,,,
CalCOFI,2007SR,075,77,2007_075u,27-Jul-2020 07:42:17,26-Jul-2020 23:42:17,34.17840,-119.50778,083.3 042.0,083.3,042.0,73.000,73.539,,10.2040,,10.1993,,10.2017,33.8471,,33.8473,33.8500,,33.8516,33.8495,2.8614,,2.9722,2.9767,3.0531,,3.3475,2.8330,2.9049,124.551,129.5307,129.7494,132.891,139.0891,125.3072,127.5283,0.0341,,,0.0723,-99.0,,-99.0,-99.0,26.0185,,26.0216,,0.7065,83.8087,,7.853,,1.9043E+00,,1.0000E-12,,10.1955,10.1908,0.2969,,45.179,48.201,,,,,,,,,,,,
CalCOFI,2007SR,075,77,2007_075u,27-Jul-2020 07:42:20,26-Jul-2020 23:42:20,34.17840,-119.50778,083.3 042.0,083.3,042.0,72.000,72.531,,10.2132,,10.2122,,10.2127,33.8448,,33.8450,33.8463,,33.8479,33.8465,2.9479,,3.0626,3.0679,3.0519,,3.3446,2.8295,2.9487,128.313,133.4578,133.7169,132.840,148.2904,125.1605,129.4387,0.0340,,,0.0712,-99.0,,-99.0,-99.0,26.0151,,26.0164,,0.7029,83.8845,,7.855,,1.9043E+00,,1.0000E-12,,10.2048,10.2039,0.2969,,46.552,48.194,,,,,,,,,,,,